Air Resources Laboratory banner image
Air Resources Laboratory web site National Oceanic and Atmospheric Administration (NOAA)

mn roundup


Office: MPX

ASUS43 KMPX 210201
RWRMN
WEATHER ROUNDUP FOR MINNESOTA
NATIONAL WEATHER SERVICE TWIN CITIES/CHANHASSEN MN
900 PM CDT FRI JUL 20 2018


NOTE: "FAIR" INDICATES FEW OR NO CLOUDS BELOW 12,000 FEET WITH NO
SIGNIFICANT WEATHER AND/OR OBSTRUCTIONS TO VISIBILITY. N/A MEANS
CURRENT SKY AND/OR WEATHER CONDITIONS ARE NOT AVAILABLE.

MNZ060>063-068>070-210300-
   Twin Cities Metro

CITY           SKY/WX    TMP DP  RH WIND       PRES   REMARKS
TWIN CITIES    MOCLDY    69  64  84 N13       29.90R
ST PAUL        FAIR      68  62  81 NW9       29.89R
CRYSTAL        FAIR      67  63  87 NW6       29.89R
BLAINE         MOCLDY    68  66  94 N8        29.90R
LAKEVILLE      FAIR      70  63  78 NW10      29.89R
EDEN PRAIRIE   FAIR      68  62  81 N9        29.89R
SOUTH ST PAUL  FAIR      68  62  81 N7        29.89R
LAKE ELMO      FAIR      68  64  88 N7        29.90R
$$
MNZ001>005-007-008-013>017-022>024-027-028-210300-
   Northwest Minnesota

CITY           SKY/WX    TMP DP  RH WIND       PRES   REMARKS
BEMIDJI        MOCLDY    69  64  83 N6        29.99R
HALLOCK        FAIR      70  64  83 CALM      30.03R
ROSEAU         CLOUDY    68  63  83 NE9       30.03S
WARROAD        CLOUDY    70  63  78 NE10      30.03S
THIEF RVR FALL FAIR      68  62  81 NE9       30.02R
CROOKSTON      FAIR      68  64  88 N5        30.01R
FOSSTON        FAIR      66  64  94 NE6       30.01R
DETROIT LAKES  FAIR      68  64  88 CALM      30.00R FOG
MOORHEAD       FAIR      70  64  83 NW6       30.01R
PARK RAPIDS    FAIR      70  64  81 N6        29.97S
MAHNOMEN       FAIR      68  65  91 N6        29.99R
$$
MNZ006-009>011-018-025>026-210300-
   North Central Minnesota

CITY           SKY/WX    TMP DP  RH WIND       PRES   REMARKS
BAUDETTE       CLOUDY    66  61  84 NE8       30.03R
FLAG ISLAND    MOCLDY    70  57  64 NE10      30.03R
INTL FALLS     CLOUDY    67  63  87 NE7       30.01S
WASKISH        CLOUDY    66  63  88 NE10      30.01R
BIG FORK       FAIR      64  63  94 N3        29.99R
LONGVILLE      FAIR      66  63  88 NE3       29.97S
GRAND RAPIDS   LGT RAIN  62  61  96 N6        29.99S
CRANE LAKE     FAIR      63  61  94 CALM      30.00S
ORR            FAIR      63  59  88 CALM      29.97S
WALKER         CLOUDY    69  64  84 N6        29.98S
$$
MNZ012-019>021-037-210300-
   Northeast Minnesota

CITY           SKY/WX    TMP DP  RH WIND       PRES   REMARKS
DULUTH         LGT RAIN  65  61  87 N5        29.96R
ELY            FAIR      64  61  88 CALM      29.98R
HIBBING        MOCLDY    63  61  93 CALM      29.97R
EVELETH        DRIZZLE   64  63  96 CALM      29.98S
DULUTH HARBOR  CLOUDY    63  61  94 NE6       29.96R
TWO HARBORS    MOCLDY    64  59  82 CALM      29.94R
SILVER BAY     FAIR      64  59  82 CALM      29.94R
GRAND MARAIS     N/A     53  50  89 CALM      29.94R
G MARAIS ARPRT DRIZZLE   61  57  88 N3        29.99R
$$
MNZ029>031-032-039>041-046>048-054>057-064-210300-
   West Central Minnesota

CITY           SKY/WX    TMP DP  RH WIND       PRES   REMARKS
FERGUS FALLS   FAIR      70  64  83 N9        29.99R
WHEATON        CLEAR     72  63  73 NW7       30.00R
MORRIS         CLEAR     72  66  83 NW7       29.96R
ALEXANDRIA     FAIR      73  65  75 N6        29.98R HAZE
ELBOW LAKE     FAIR      71  66  85 NW7       29.98R HAZE
GLENWOOD       FAIR      70  64  83 N6        29.97R
APPLETON       CLEAR     73  64  73 NW5       29.96R
BENSON         CLEAR     70  64  83 N6        29.97R
ORTONVILLE     CLEAR     72  64  78 N7        29.98R
MADISON        CLEAR     73  66  78 NW7       29.97R
WILLMAR        FAIR      70  64  83 NW5       29.97R
$$
MNZ033>034-036-042>043-049>051-058-059-210300-
   Central Minnesota

CITY           SKY/WX    TMP DP  RH WIND       PRES   REMARKS
ST CLOUD       FAIR      65  64  97 NW6       29.93S
SAUK CENTRE    MOCLDY    69  65  87 NW6       29.96R
PAYNESVILLE    FAIR      70  64  82 CALM      29.95R
AITKIN         FAIR      63  61  94 N3        29.94S
PINE RIVER     FAIR      66  61  82 N3        29.99S
BRAINERD       FAIR      69  62  78 N7        29.95S
STAPLES        FAIR      68  63  83 N5        29.96S HAZE
LONG PRAIRIE   FAIR      68  64  88 CALM      29.96R
LITTLE FALLS   FAIR      68  63  83 CALM      29.96R
LITCHFIELD     MOCLDY    72  64  78 NE9G17    29.95R
BUFFALO        LGT RAIN  68  62  80 NW5       29.93S
MAPLE LAKE     MOCLDY    67  64  90 CALM      29.93S
HUTCHINSON     FAIR      71  65  82 N3        29.95R
$$
MNZ037-044-045-052-053-210300-
   East Central Minnesota

CITY           SKY/WX    TMP DP  RH WIND       PRES   REMARKS
PRINCETON      MOCLDY    66  64  94 CALM      29.92S
MORA           FAIR      64  64 100 CALM      29.94S
CAMBRIDGE      FAIR      68  66  94 N3        29.92R
RUSH CITY      RAIN      66  64  93 N5        29.92R
MOOSE LAKE     CLOUDY    63  59  88 NE6       29.94R
HINCKLEY       FAIR      64  63  94 N7        29.93R
CLOQUET        RAIN      63  57  82 CALM      29.96S
MCGREGOR       MOCLDY    64  63  94 CALM      29.95S
$$
MNZ071>073-080-081-089-090-097-098-210300-
   Southwest Minnesota

CITY           SKY/WX    TMP DP  RH WIND       PRES   REMARKS
MONTEVIDEO     CLEAR     72  64  78 N6        29.96R
GRANITE FALLS  CLEAR     73  67  82 W6        29.97R
MARSHALL       CLEAR     71  65  81 N7        29.97R
REDWOOD FALLS  CLEAR     71  66  84 NW7       29.93R
OLIVIA         CLEAR     72  64  78 NW5       29.94R
PIPESTONE      CLEAR     73  66  78 N5        29.99R
WINDOM         CLEAR     70  68  94 NW7       29.95R
WORTHINGTON    PTCLDY    71  65  81 N6        29.97R
JACKSON        PTCLDY    70  63  78 N6        29.96R
TRACY          CLEAR     71  65  81 NW6       29.97R
SLAYTON        RAIN      70  65  82 N7        29.99R
$$
MNZ065>067-074>077-082>085-091>093-210300-
   South Central Minnesota

CITY           SKY/WX    TMP DP  RH WIND       PRES   REMARKS
MANKATO        MOCLDY    69  63  81 N9        29.92R
NEW ULM        CLEAR     72  64  78 NW7       29.92R
ST JAMES       CLEAR     72  64  78 NW6       29.94R
FAIRMONT       CLEAR     70  65  84 NW5       29.93R
GLENCOE        FAIR      69  64  84 N3        29.92R
FARIBAULT      FAIR      66  63  88 NW5       29.90R
OWATONNA       FAIR      70  63  78 NW10G17   29.90R
WASECA         MOCLDY    70  63  78 N12       29.91R
ALBERT LEA     FAIR      70  61  73 NW5       29.89R
$$
MNZ078>079-086>088-094>096-210300-
   Southeast Minnesota

CITY           SKY/WX    TMP DP  RH WIND       PRES   REMARKS
ROCHESTER      FAIR      67  64  90 NW10      29.87R
RED WING       FAIR      70  64  83 NW5       29.85R
STANTON        FAIR      67  62  84 NW6       29.88R
DODGE CENTER   FAIR      68  61  77 N6        29.89R
WINONA         FAIR      70  64  83 NW5       29.82R
AUSTIN         FAIR      72  63  73 NW14G29   29.88R
PRESTON        FAIR      68  63  83 NW9G17    29.86R
$$
ABBREVIATIONS USED IN REMARKS
   TC - TEMPERATURES IN CELSIUS
  WCI - WIND CHILL INDEX
   HX - HEAT INDEX
  VSB - VISIBILITY
$$


ASUS43 KMPX 210210
RWRMN
WEATHER ROUNDUP FOR MINNESOTA
NATIONAL WEATHER SERVICE TWIN CITIES/CHANHASSEN MN
900 PM CDT FRI JUL 20 2018


NOTE: "FAIR" INDICATES FEW OR NO CLOUDS BELOW 12,000 FEET WITH NO
SIGNIFICANT WEATHER AND/OR OBSTRUCTIONS TO VISIBILITY. N/A MEANS
CURRENT SKY AND/OR WEATHER CONDITIONS ARE NOT AVAILABLE.

MNZ060>063-068>070-210300-
   Twin Cities Metro

CITY           SKY/WX    TMP DP  RH WIND       PRES   REMARKS
TWIN CITIES    MOCLDY    69  64  84 N13       29.90R
ST PAUL        FAIR      68  62  81 NW9       29.89R
CRYSTAL        FAIR      67  63  87 NW6       29.89R
BLAINE         MOCLDY    68  66  94 N8        29.90R
LAKEVILLE      FAIR      70  63  78 NW10      29.89R
EDEN PRAIRIE   FAIR      68  62  81 N9        29.89R
SOUTH ST PAUL  FAIR      68  62  81 N7        29.89R
LAKE ELMO      FAIR      68  64  88 N8        29.90R
$$
MNZ001>005-007-008-013>017-022>024-027-028-210300-
   Northwest Minnesota

CITY           SKY/WX    TMP DP  RH WIND       PRES   REMARKS
BEMIDJI        MOCLDY    69  64  83 N6        29.99R
HALLOCK        FAIR      70  64  83 CALM      30.03R
ROSEAU         CLOUDY    68  63  83 NE9       30.03S
WARROAD        CLOUDY    70  64  83 NE10G16   30.03S
THIEF RVR FALL FAIR      68  62  81 NE9       30.02R
CROOKSTON      FAIR      68  64  88 N5        30.01R
FOSSTON        FAIR      66  64  94 NE6       30.01R
DETROIT LAKES  FAIR      68  64  88 CALM      30.00R FOG
MOORHEAD       FAIR      70  64  83 NW6       30.01R
PARK RAPIDS    FAIR      70  64  81 N6        29.97S
MAHNOMEN       FAIR      67  65  94 N6        30.00R
$$
MNZ006-009>011-018-025>026-210300-
   North Central Minnesota

CITY           SKY/WX    TMP DP  RH WIND       PRES   REMARKS
BAUDETTE       CLOUDY    66  61  84 NE8       30.03R
FLAG ISLAND    MOCLDY    70  57  64 NE10      30.03R
INTL FALLS     CLOUDY    67  63  87 NE7       30.01S
WASKISH        CLOUDY    66  63  88 NE10      30.01R
BIG FORK       FAIR      64  63  94 N3        29.99R
LONGVILLE      FAIR      66  63  88 NE3       29.97S
GRAND RAPIDS   LGT RAIN  62  61  96 N6        29.99S
CRANE LAKE     FAIR      63  61  94 CALM      30.00S
ORR            FAIR      63  59  88 CALM      29.97S
COOK           LGT RAIN  63  61  94 CALM      29.99R
WALKER         LGT RAIN  69  64  85 N5        29.98R
$$
MNZ012-019>021-037-210300-
   Northeast Minnesota

CITY           SKY/WX    TMP DP  RH WIND       PRES   REMARKS
DULUTH         LGT RAIN  65  61  87 N5        29.96R
ELY            FAIR      64  61  88 CALM      29.98R
HIBBING        MOCLDY    63  61  93 CALM      29.97R
EVELETH        DRIZZLE   64  63  96 CALM      29.98S
DULUTH HARBOR  CLOUDY    63  61  94 NE6       29.96R
TWO HARBORS    MOCLDY    64  59  82 CALM      29.94R
SILVER BAY     FAIR      64  59  82 CALM      29.95R
GRAND MARAIS     N/A     53  50  89 CALM      29.94R
G MARAIS ARPRT DRIZZLE   61  57  88 N3        29.99R
$$
MNZ029>031-032-039>041-046>048-054>057-064-210300-
   West Central Minnesota

CITY           SKY/WX    TMP DP  RH WIND       PRES   REMARKS
FERGUS FALLS   FAIR      70  64  83 N9        29.99R
WHEATON        CLEAR     72  63  73 NW7       30.00R
MORRIS         CLEAR     72  66  83 NW7       29.96R
ALEXANDRIA     FAIR      73  65  75 N6        29.98R HAZE
ELBOW LAKE     FAIR      71  66  85 NW7       29.98R HAZE
GLENWOOD       FAIR      70  64  83 N6        29.97R
APPLETON       CLEAR     73  64  73 NW5       29.96R
BENSON         CLEAR     70  64  83 N6        29.97R
ORTONVILLE     CLEAR     72  64  78 N7        29.98R
MADISON        CLEAR     73  66  78 NW7       29.97R
WILLMAR        FAIR      70  64  83 NW5       29.97R
$$
MNZ033>034-036-042>043-049>051-058-059-210300-
   Central Minnesota

CITY           SKY/WX    TMP DP  RH WIND       PRES   REMARKS
ST CLOUD       FAIR      65  64  97 NW6       29.93S
SAUK CENTRE    MOCLDY    69  65  87 NW6       29.96R
PAYNESVILLE    FAIR      70  64  82 CALM      29.95R
AITKIN         FAIR      63  61  94 N3        29.94S
PINE RIVER     FAIR      66  61  82 N3        29.99S
BRAINERD       FAIR      69  62  78 N7        29.95S
STAPLES        FAIR      68  63  83 N5        29.96S HAZE
LONG PRAIRIE   FAIR      68  64  88 CALM      29.96R
LITTLE FALLS   FAIR      68  63  83 CALM      29.96R
LITCHFIELD     MOCLDY    72  64  78 NE9G17    29.95R
BUFFALO        LGT RAIN  68  62  80 NW5       29.93S
MAPLE LAKE     MOCLDY    67  64  90 CALM      29.93S
HUTCHINSON     FAIR      71  65  82 N3        29.95R
$$
MNZ037-044-045-052-053-210300-
   East Central Minnesota

CITY           SKY/WX    TMP DP  RH WIND       PRES   REMARKS
PRINCETON      MOCLDY    66  64  94 CALM      29.92S
MORA           FAIR      64  64 100 CALM      29.94S
CAMBRIDGE      FAIR      68  66  94 N3        29.92R
RUSH CITY      RAIN      66  64  93 N5        29.92R
MOOSE LAKE     CLOUDY    63  59  88 NE6       29.94R
HINCKLEY       FAIR      64  63  94 N7        29.93R
CLOQUET        RAIN      63  57  82 CALM      29.96S
MCGREGOR       MOCLDY    64  63  94 CALM      29.95S
$$
MNZ071>073-080-081-089-090-097-098-210300-
   Southwest Minnesota

CITY           SKY/WX    TMP DP  RH WIND       PRES   REMARKS
MONTEVIDEO     CLEAR     72  64  78 N6        29.96R
GRANITE FALLS  CLEAR     73  67  82 W6        29.97R
MARSHALL       CLEAR     71  65  81 N7        29.97R
REDWOOD FALLS  CLEAR     71  66  84 NW7       29.93R
OLIVIA         CLEAR     72  64  78 NW5       29.94R
PIPESTONE      CLEAR     73  66  78 N5        29.99R
WINDOM         CLEAR     70  68  94 NW7       29.95R
WORTHINGTON    PTCLDY    71  65  81 N6        29.97R
JACKSON        PTCLDY    70  63  78 N6        29.96R
TRACY          CLEAR     71  65  81 NW6       29.97R
SLAYTON        RAIN      70  65  82 N7        29.99R
$$
MNZ065>067-074>077-082>085-091>093-210300-
   South Central Minnesota

CITY           SKY/WX    TMP DP  RH WIND       PRES   REMARKS
MANKATO        MOCLDY    69  63  81 N9        29.92R
NEW ULM        CLEAR     72  64  78 NW7       29.92R
ST JAMES       CLEAR     72  64  78 NW6       29.94R
FAIRMONT       CLEAR     70  65  84 NW5       29.93R
GLENCOE        FAIR      69  64  84 N3        29.92R
FARIBAULT      FAIR      66  63  88 NW5       29.90R
OWATONNA       FAIR      70  63  78 NW10G17   29.90R
WASECA         MOCLDY    70  63  78 N12       29.91R
ALBERT LEA     FAIR      70  61  73 NW5       29.89R
$$
MNZ078>079-086>088-094>096-210300-
   Southeast Minnesota

CITY           SKY/WX    TMP DP  RH WIND       PRES   REMARKS
ROCHESTER      FAIR      67  64  90 NW10      29.87R
RED WING       FAIR      70  64  83 NW5       29.85R
STANTON        FAIR      67  62  84 NW6       29.88R
DODGE CENTER   FAIR      68  61  77 N6        29.89R
WINONA         FAIR      70  64  83 NW5       29.82R
AUSTIN         FAIR      72  63  73 NW14G29   29.88R
PRESTON        FAIR      68  63  83 NW9G17    29.86R
$$
ABBREVIATIONS USED IN REMARKS
   TC - TEMPERATURES IN CELSIUS
  WCI - WIND CHILL INDEX
   HX - HEAT INDEX
  VSB - VISIBILITY
$$




Office: FSD ASUS43 KFSD 210202 RWRSD WEATHER ROUNDUP FOR SOUTH DAKOTA NATIONAL WEATHER SERVICE SIOUX FALLS SD 900 PM CDT FRI JUL 20 2018 NOTE: "FAIR" INDICATES FEW OR NO CLOUDS BELOW 12,000 FEET WITH NO SIGNIFICANT WEATHER AND/OR OBSTRUCTIONS TO VISIBILITY. SDZ001>005-009-010-012>017-210300- NORTHWEST AND NORTH CENTRAL SOUTH DAKOTA CITY SKY/WX TMP DP RH WIND PRES REMARKS BUFFALO N/A 78 54 43 E14 30.00S FAITH N/A 75 59 57 E6 30.06R MOBRIDGE CLEAR 74 62 66 NE6 30.02R $$ SDZ012>016-024>037-041>051-057-063-072>074-210300- SOUTHWEST AND SOUTH CENTRAL SOUTH DAKOTA CITY SKY/WX TMP DP RH WIND PRES REMARKS RAPID CTY ARPT CLEAR 74 62 66 E7 30.06R PIERRE CLEAR 77 61 57 N7 30.01R CUSTER CLEAR 68 57 68 E7 30.21R ELLSWORTH AFB CLEAR 76 62 61 E9 30.06R PHILIP CLEAR 80 56 43 E13 30.02R PINE RIDGE CLEAR 80 60 50 E10 30.04S SPEARFISH FAIR 73 63 68 E13G18 30.08S WINNER FAIR 77 63 61 E3 30.02R $$ SDZ004>011-016>023-039-040-210300- NORTHEAST SOUTH DAKOTA CITY SKY/WX TMP DP RH WIND PRES REMARKS ABERDEEN CLEAR 74 64 71 N8 30.01R WATERTOWN CLEAR 71 64 78 N9 29.99R BROOKINGS CLEAR 72 64 76 N6 29.99R SISSETON N/A 71 65 81 N9 29.99R $$ SDZ017-020-022-023-036>040-048>070-210300- SOUTHEAST SOUTH DAKOTA CITY SKY/WX TMP DP RH WIND PRES REMARKS SIOUX FALLS PTCLDY 74 64 71 NW7 29.97R HURON CLEAR 74 64 71 N6 29.99R CHAMBERLAIN CLEAR 79 66 64 NE5 30.00R MITCHELL CLEAR 75 63 66 N5 29.99R YANKTON CLEAR 75 66 73 N6 29.97R $$ ABBREVIATIONS USED IN REMARKS TC - TEMPERATURE IN CELSIUS WCI - WIND CHILL INDEX HX - HEAT INDEX VSB - VISIBILITY ASUS43 KFSD 210202 RWRFSD WEATHER ROUNDUP FOR SE SOUTH DAKOTA/SW MINNESOTA/NW IOWA NATIONAL WEATHER SERVICE SIOUX FALLS SD 900 PM CDT FRI JUL 20 2018 NOTE: "FAIR" INDICATES FEW OR NO CLOUDS BELOW 12,000 FEET WITH NO SIGNIFICANT WEATHER AND OR OBSTRUCTIONS TO VISIBILITY. SDZ038>040-050-052>070-210300- SOUTHEAST SOUTH DAKOTA CITY SKY/WX TMP DP RH WIND PRES REMARKS BROOKINGS CLEAR 72 64 76 N6 29.99R CHAMBERLAIN CLEAR 79 66 64 NE5 30.00R HURON CLEAR 74 64 71 N6 29.99R MADISON FAIR 70 70 100 N6 30.00R MITCHELL CLEAR 75 63 66 N5 29.99R SIOUX FALLS PTCLDY 74 64 71 NW7 29.97R WINNER FAIR 77 63 61 E3 30.02R YANKTON CLEAR 75 66 73 N6 29.97R $$ MNZ071-072-080-081-089-090-097-098-210300- SOUTHWEST MINNESOTA CITY SKY/WX TMP DP RH WIND PRES REMARKS FAIRMONT CLEAR 70 65 84 NW5 29.93R JACKSON PTCLDY 70 63 78 N6 29.96R LUVERNE CLEAR 72 63 73 NW3 29.97R MARSHALL CLEAR 71 65 81 N7 29.97R MONTEVIDEO CLEAR 72 64 78 N6 29.96R PIPESTONE CLEAR 73 66 78 N5 29.99R REDWOOD FALLS CLEAR 71 66 84 NW7 29.93R TRACY CLEAR 71 65 81 NW6 29.97R WINDOM CLEAR 70 68 94 NW7 29.95R WORTHINGTON PTCLDY 71 65 81 N6 29.97R $$ IAZ001>003-012>014-020>022-031-032-NEZ013-014-SDZ071-210300- NORTHWEST IOWA CITY SKY/WX TMP DP RH WIND PRES REMARKS CHEROKEE CLEAR 75 64 69 NW5 29.94S DENISON CLEAR 73 66 78 CALM 29.96R ESTHERVILLE PTCLDY 71 64 78 NW8 29.93R ORANGE CITY CLEAR 75 64 69 NW5 29.96R SHELDON CLEAR 70 68 94 NW5 29.94R SIOUX CITY CLEAR 74 66 76 NW5 29.95R SPENCER CLEAR 73 64 73 N6 29.94R STORM LAKE CLEAR 72 64 78 NW6 29.95R $$ ABBREVIATIONS USED IN REMARKS TC - TEMPERATURE IN CELSIUS WCI - WIND CHILL INDEX HX - HEAT INDEX VSB - VISIBILITY ASUS43 KFSD 210210 RWRSD WEATHER ROUNDUP FOR SOUTH DAKOTA NATIONAL WEATHER SERVICE SIOUX FALLS SD 900 PM CDT FRI JUL 20 2018 NOTE: "FAIR" INDICATES FEW OR NO CLOUDS BELOW 12,000 FEET WITH NO SIGNIFICANT WEATHER AND/OR OBSTRUCTIONS TO VISIBILITY. SDZ001>005-009-010-012>017-210300- NORTHWEST AND NORTH CENTRAL SOUTH DAKOTA CITY SKY/WX TMP DP RH WIND PRES REMARKS BUFFALO N/A 78 54 43 E14 30.00S FAITH N/A 75 59 57 E6 30.06R MOBRIDGE CLEAR 74 62 66 NE6 30.02R $$ SDZ012>016-024>037-041>051-057-063-072>074-210300- SOUTHWEST AND SOUTH CENTRAL SOUTH DAKOTA CITY SKY/WX TMP DP RH WIND PRES REMARKS RAPID CTY ARPT CLEAR 74 62 66 E7 30.06R PIERRE CLEAR 77 61 57 N7 30.01R CUSTER CLEAR 68 57 68 E7 30.21R ELLSWORTH AFB CLEAR 76 62 61 E9 30.06R PHILIP CLEAR 80 56 43 E13 30.02R PINE RIDGE CLEAR 80 60 50 E10 30.04S SPEARFISH FAIR 73 63 68 E13G18 30.08S WINNER FAIR 77 63 61 E3 30.02R $$ SDZ004>011-016>023-039-040-210300- NORTHEAST SOUTH DAKOTA CITY SKY/WX TMP DP RH WIND PRES REMARKS ABERDEEN CLEAR 74 64 71 N8 30.01R WATERTOWN CLEAR 71 64 78 N9 29.99R BROOKINGS CLEAR 72 64 76 N6 29.99R SISSETON N/A 71 65 81 N9 29.99R $$ SDZ017-020-022-023-036>040-048>070-210300- SOUTHEAST SOUTH DAKOTA CITY SKY/WX TMP DP RH WIND PRES REMARKS SIOUX FALLS PTCLDY 74 64 71 NW7 29.97R HURON CLEAR 74 64 71 N6 29.99R CHAMBERLAIN CLEAR 79 66 64 NE5 30.00R MITCHELL CLEAR 75 63 66 N5 29.99R YANKTON CLEAR 75 66 73 N6 29.97R $$ ABBREVIATIONS USED IN REMARKS TC - TEMPERATURE IN CELSIUS WCI - WIND CHILL INDEX HX - HEAT INDEX VSB - VISIBILITY ASUS43 KFSD 210210 RWRFSD WEATHER ROUNDUP FOR SE SOUTH DAKOTA/SW MINNESOTA/NW IOWA NATIONAL WEATHER SERVICE SIOUX FALLS SD 900 PM CDT FRI JUL 20 2018 NOTE: "FAIR" INDICATES FEW OR NO CLOUDS BELOW 12,000 FEET WITH NO SIGNIFICANT WEATHER AND OR OBSTRUCTIONS TO VISIBILITY. SDZ038>040-050-052>070-210300- SOUTHEAST SOUTH DAKOTA CITY SKY/WX TMP DP RH WIND PRES REMARKS BROOKINGS CLEAR 72 64 76 N6 29.99R CHAMBERLAIN CLEAR 79 66 64 NE5 30.00R HURON CLEAR 74 64 71 N6 29.99R MADISON FAIR 70 70 100 N6 30.00R MITCHELL CLEAR 75 63 66 N5 29.99R SIOUX FALLS PTCLDY 74 64 71 NW7 29.97R WINNER FAIR 77 63 61 E3 30.02R YANKTON CLEAR 75 66 73 N6 29.97R $$ MNZ071-072-080-081-089-090-097-098-210300- SOUTHWEST MINNESOTA CITY SKY/WX TMP DP RH WIND PRES REMARKS FAIRMONT CLEAR 70 65 84 NW5 29.93R JACKSON PTCLDY 70 63 78 N6 29.96R LUVERNE CLEAR 72 63 73 NW3 29.97R MARSHALL CLEAR 71 65 81 N7 29.97R MONTEVIDEO CLEAR 72 64 78 N6 29.96R PIPESTONE CLEAR 73 66 78 N5 29.99R REDWOOD FALLS CLEAR 71 66 84 NW7 29.93R TRACY CLEAR 71 65 81 NW6 29.97R WINDOM CLEAR 70 68 94 NW7 29.95R WORTHINGTON PTCLDY 71 65 81 N6 29.97R $$ IAZ001>003-012>014-020>022-031-032-NEZ013-014-SDZ071-210300- NORTHWEST IOWA CITY SKY/WX TMP DP RH WIND PRES REMARKS CHEROKEE CLEAR 75 64 69 NW5 29.94S DENISON CLEAR 73 66 78 CALM 29.96R ESTHERVILLE PTCLDY 71 64 78 NW8 29.93R ORANGE CITY CLEAR 75 64 69 NW5 29.96R SHELDON CLEAR 70 68 94 NW5 29.94R SIOUX CITY CLEAR 74 66 76 NW5 29.95R SPENCER CLEAR 73 64 73 N6 29.94R STORM LAKE CLEAR 72 64 78 NW6 29.95R $$ ABBREVIATIONS USED IN REMARKS TC - TEMPERATURE IN CELSIUS WCI - WIND CHILL INDEX HX - HEAT INDEX VSB - VISIBILITY ASUS63 KFSD 210220 RTPFSD Max/Min Temperature and Precipitation Table For SE South Dakota/SW Minnesota/NW Iowa/NE Nebraska National Weather Service Sioux Falls SD 920 PM CDT Fri Jul 20 2018 Values represent Lows over the last 18 hours... Highs over the last 18 hours and Precipitation over the last 24 hours .BR FSD 0720 C DH19/TAIRZSZ/TAIRZIZ/PPDRZZZ : : MAX MIN :ID LOCATION TEMP TEMP PCPN : : Southeast South Dakota... : BKX :Brookings SD : 79 / 61 / M 9V9 :Chamberlain SD : 87 / 61 / 0.00 HON :Huron SD : 82 / 57 / 0.00 MHE :Mitchell SD : 86 / 61 / 0.00 MDS :Madison SD : 77 / 57 / 0.00 FSD :Sioux Falls SD : 82 / 62 / 0.00 YKN :Yankton SD : 83 / 62 / 0.00 : : Southwest Minnesota... : LYV :Luverne MN : 79 / 63 / 0.00 DVP :Slayton MN : 79 / 63 / 0.02 MJQ :Jackson MN : 77 / 63 / 0.05 MML :Marshall MN : 77 / 64 / 0.19 PQN :Pipestone MN : 79 / 63 / 0.00 TKC :Tracy MN : 78 / 64 / 0.07 MWM :Windom MN : 79 / 63 / 0.35 OTG :Worthington MN : 79 / 63 / T : : Northwest Iowa... : CKP :Cherokee IA : 81 / 63 / 0.00 LRJ :Le Mars IA : 82 / 63 / 0.00 ORC :Orange City IA : 81 / 63 / 0.00 SHL :Sheldon IA : 81 / 64 / 0.00 SUX :Sioux City IA : 85 / 62 / 0.00 SPW :Spencer IA : 82 / 67 / 0.00 SLB :Storm Lake IA : 79 / 63 / 0.00 .End These data are preliminary and have not undergone final quality control by the National Climatic Data Center /NCDC/. Therefore... these data are subject to revision. Final and certified climate data can be accessed at www.ncdc.noaa.gov. $$